Year,Month,Day,Hour,Minute,Value (Times are PST for temperature in C)
2020,05,08,00,00,11.00
2020,05,08,00,01,11.00
2020,05,08,00,02,11.00
2020,05,08,00,03,10.90
2020,05,08,00,04,10.90
2020,05,08,00,05,10.90
2020,05,08,00,06,10.90
2020,05,08,00,07,10.80
2020,05,08,00,08,10.80
2020,05,08,00,09,10.80
2020,05,08,00,10,10.80
2020,05,08,00,11,10.80
2020,05,08,00,12,10.80
2020,05,08,00,13,10.70
2020,05,08,00,14,10.70
2020,05,08,00,15,10.70
2020,05,08,00,16,10.70
2020,05,08,00,17,10.70
2020,05,08,00,18,10.70
2020,05,08,00,19,10.70
2020,05,08,00,20,10.70
2020,05,08,00,21,10.70
2020,05,08,00,22,10.70
2020,05,08,00,23,10.60
2020,05,08,00,24,10.60
2020,05,08,00,25,10.60
2020,05,08,00,26,10.60
2020,05,08,00,27,10.60
2020,05,08,00,28,10.60
2020,05,08,00,29,10.60
2020,05,08,00,30,10.60
2020,05,08,00,31,10.60
2020,05,08,00,32,10.60
2020,05,08,00,33,10.50
2020,05,08,00,34,10.50
2020,05,08,00,35,10.50
2020,05,08,00,36,10.50
2020,05,08,00,37,10.40
2020,05,08,00,38,10.40
2020,05,08,00,39,10.40
2020,05,08,00,40,10.40
2020,05,08,00,41,10.40
2020,05,08,00,42,10.30
2020,05,08,00,43,10.30
2020,05,08,00,44,10.30
2020,05,08,00,45,10.30
2020,05,08,00,46,10.30
2020,05,08,00,47,10.30
2020,05,08,00,48,10.30
2020,05,08,00,49,10.30
2020,05,08,00,50,10.30
2020,05,08,00,51,10.30
2020,05,08,00,52,10.30
2020,05,08,00,53,10.30
2020,05,08,00,54,10.20
2020,05,08,00,55,10.20
2020,05,08,00,56,10.20
2020,05,08,00,57,10.20
2020,05,08,00,58,10.20
2020,05,08,00,59,10.20
2020,05,08,01,00,10.20
2020,05,08,01,01,10.20
2020,05,08,01,02,10.20
2020,05,08,01,03,10.20
2020,05,08,01,04,10.20
2020,05,08,01,05,10.20
2020,05,08,01,06,10.20
2020,05,08,01,07,10.20
2020,05,08,01,08,10.20
2020,05,08,01,09,10.20
2020,05,08,01,10,10.20
2020,05,08,01,11,10.20
2020,05,08,01,12,10.20
2020,05,08,01,13,10.10
2020,05,08,01,14,10.10
2020,05,08,01,15,10.10
2020,05,08,01,16,10.10
2020,05,08,01,17,10.10
2020,05,08,01,18,10.10
2020,05,08,01,19,10.10
2020,05,08,01,20,10.10
2020,05,08,01,21,10.00
2020,05,08,01,22,10.00
2020,05,08,01,23,10.00
2020,05,08,01,24,10.00
2020,05,08,01,25,10.00
2020,05,08,01,26,10.00
2020,05,08,01,27,10.10
2020,05,08,01,28,10.00
2020,05,08,01,29,10.10
2020,05,08,01,30,10.10
2020,05,08,01,31,10.10
2020,05,08,01,32,10.10
2020,05,08,01,33,10.10
2020,05,08,01,34,10.10
2020,05,08,01,35,10.00
2020,05,08,01,36,10.10
2020,05,08,01,37,10.10
2020,05,08,01,38,10.10
2020,05,08,01,39,10.10
2020,05,08,01,40,10.10
2020,05,08,01,41,10.10
2020,05,08,01,42,10.10
2020,05,08,01,43,10.00
2020,05,08,01,44,10.00
2020,05,08,01,45,10.00
2020,05,08,01,46,10.00
2020,05,08,01,47,10.00
2020,05,08,01,48,10.00
2020,05,08,01,49,10.00
2020,05,08,01,50,10.00
2020,05,08,01,51,10.00
2020,05,08,01,52,10.10
2020,05,08,01,53,10.10
2020,05,08,01,54,10.10
2020,05,08,01,55,10.10
2020,05,08,01,56,10.00
2020,05,08,01,57,10.00
2020,05,08,01,58,9.90
2020,05,08,01,59,9.90
2020,05,08,02,00,9.90
2020,05,08,02,01,9.90
2020,05,08,02,02,9.90
2020,05,08,02,03,9.90
2020,05,08,02,04,9.90
2020,05,08,02,05,9.90
2020,05,08,02,06,9.90
2020,05,08,02,07,9.90
2020,05,08,02,08,9.90
2020,05,08,02,09,9.90
2020,05,08,02,10,9.90
2020,05,08,02,11,9.90
2020,05,08,02,12,9.90
2020,05,08,02,13,10.00
2020,05,08,02,14,10.00
2020,05,08,02,15,10.00
2020,05,08,02,16,10.00
2020,05,08,02,17,10.10
2020,05,08,02,18,10.10
2020,05,08,02,19,10.10
2020,05,08,02,20,10.10
2020,05,08,02,21,10.10
2020,05,08,02,22,10.20
2020,05,08,02,23,10.20
2020,05,08,02,24,10.20
2020,05,08,02,25,10.20
2020,05,08,02,26,10.20
2020,05,08,02,27,10.20
2020,05,08,02,28,10.20
2020,05,08,02,29,10.20
2020,05,08,02,30,10.20
2020,05,08,02,31,10.10
2020,05,08,02,32,10.10
2020,05,08,02,33,10.10
2020,05,08,02,34,10.10
2020,05,08,02,35,10.10
2020,05,08,02,36,10.10
2020,05,08,02,37,10.00
2020,05,08,02,38,10.00
2020,05,08,02,39,10.00
2020,05,08,02,40,9.90
2020,05,08,02,41,9.90
2020,05,08,02,42,9.90
2020,05,08,02,43,9.90
2020,05,08,02,44,9.90
2020,05,08,02,45,9.90
2020,05,08,02,46,9.90
2020,05,08,02,47,9.90
2020,05,08,02,48,9.80
2020,05,08,02,49,9.80
2020,05,08,02,50,9.80
2020,05,08,02,51,9.90
2020,05,08,02,52,9.90
2020,05,08,02,53,9.90
2020,05,08,02,54,9.90
2020,05,08,02,55,9.90
2020,05,08,02,56,9.90
2020,05,08,02,57,9.90
2020,05,08,02,58,9.90
2020,05,08,02,59,9.90
2020,05,08,03,00,9.90
2020,05,08,03,01,9.90
2020,05,08,03,02,9.90
2020,05,08,03,03,9.90
2020,05,08,03,04,9.90
2020,05,08,03,05,9.90
2020,05,08,03,06,9.90
2020,05,08,03,07,9.90
2020,05,08,03,08,9.80
2020,05,08,03,09,9.80
2020,05,08,03,10,9.80
2020,05,08,03,11,9.80
2020,05,08,03,12,9.80
2020,05,08,03,13,9.70
2020,05,08,03,14,9.70
2020,05,08,03,15,9.70
2020,05,08,03,16,9.70
2020,05,08,03,17,9.70
2020,05,08,03,18,9.70
2020,05,08,03,19,9.70
2020,05,08,03,20,9.70
2020,05,08,03,21,9.70
2020,05,08,03,22,9.70
2020,05,08,03,23,9.70
2020,05,08,03,24,9.70
2020,05,08,03,25,9.70
2020,05,08,03,26,9.70
2020,05,08,03,27,9.70
2020,05,08,03,28,9.70
2020,05,08,03,29,9.70
2020,05,08,03,30,9.70
2020,05,08,03,31,9.70
2020,05,08,03,32,9.70
2020,05,08,03,33,9.70
2020,05,08,03,34,9.70
2020,05,08,03,35,9.70
2020,05,08,03,36,9.70
2020,05,08,03,37,9.70
2020,05,08,03,38,9.70
2020,05,08,03,39,9.70
2020,05,08,03,40,9.70
2020,05,08,03,41,9.70
2020,05,08,03,42,9.70
2020,05,08,03,43,9.70
2020,05,08,03,44,9.70
2020,05,08,03,45,9.70
2020,05,08,03,46,9.70
2020,05,08,03,47,9.70
2020,05,08,03,48,9.80
2020,05,08,03,49,9.80
2020,05,08,03,50,9.80
2020,05,08,03,51,9.80
2020,05,08,03,52,9.80
2020,05,08,03,53,9.80
2020,05,08,03,54,9.80
2020,05,08,03,55,9.80
2020,05,08,03,56,9.80
2020,05,08,03,57,9.80
2020,05,08,03,58,9.80
2020,05,08,03,59,9.80
2020,05,08,04,00,9.80
2020,05,08,04,01,9.80
2020,05,08,04,02,9.90
2020,05,08,04,03,9.90
2020,05,08,04,04,9.90
2020,05,08,04,05,9.90
2020,05,08,04,06,9.90
2020,05,08,04,07,9.90
2020,05,08,04,08,9.90
2020,05,08,04,09,9.90
2020,05,08,04,10,9.90
2020,05,08,04,11,9.90
2020,05,08,04,12,9.80
2020,05,08,04,13,9.80
2020,05,08,04,14,9.80
2020,05,08,04,15,9.80
2020,05,08,04,16,9.80
2020,05,08,04,17,9.80
2020,05,08,04,18,9.80
2020,05,08,04,19,9.80
2020,05,08,04,20,9.80
2020,05,08,04,21,9.80
2020,05,08,04,22,9.80
2020,05,08,04,23,9.80
2020,05,08,04,24,9.80
2020,05,08,04,25,9.80
2020,05,08,04,26,9.80
2020,05,08,04,27,9.80
2020,05,08,04,28,9.80
2020,05,08,04,29,9.80
2020,05,08,04,30,9.80
2020,05,08,04,31,9.90
2020,05,08,04,32,9.90
2020,05,08,04,33,9.90
2020,05,08,04,34,9.90
2020,05,08,04,35,9.90
2020,05,08,04,36,9.90
2020,05,08,04,37,9.90
2020,05,08,04,38,10.00
2020,05,08,04,39,10.00
2020,05,08,04,40,10.10
2020,05,08,04,41,10.10
2020,05,08,04,42,10.10
2020,05,08,04,43,10.20
2020,05,08,04,44,10.20
2020,05,08,04,45,10.20
2020,05,08,04,46,10.20
2020,05,08,04,47,10.20
2020,05,08,04,48,10.10
2020,05,08,04,49,10.10
2020,05,08,04,50,10.10
2020,05,08,04,51,10.10
2020,05,08,04,52,10.10
2020,05,08,04,53,10.10
2020,05,08,04,54,10.10
2020,05,08,04,55,10.10
2020,05,08,04,56,10.10
2020,05,08,04,57,10.10
2020,05,08,04,58,10.10
2020,05,08,04,59,10.10
2020,05,08,05,00,10.10
2020,05,08,05,01,10.10
2020,05,08,05,02,10.10
2020,05,08,05,03,10.10
2020,05,08,05,04,10.10
2020,05,08,05,05,10.10
2020,05,08,05,06,10.20
2020,05,08,05,07,10.20
2020,05,08,05,08,10.20
2020,05,08,05,09,10.30
2020,05,08,05,10,10.30
2020,05,08,05,11,10.30
2020,05,08,05,12,10.40
2020,05,08,05,13,10.40
2020,05,08,05,14,10.50
2020,05,08,05,15,10.50
2020,05,08,05,16,10.60
2020,05,08,05,17,10.70
2020,05,08,05,18,10.80
2020,05,08,05,19,10.90
2020,05,08,05,20,11.10
2020,05,08,05,21,11.20
2020,05,08,05,22,11.30
2020,05,08,05,23,11.40
2020,05,08,05,24,11.60
2020,05,08,05,25,11.70
2020,05,08,05,26,11.80
2020,05,08,05,27,11.90
2020,05,08,05,28,12.00
2020,05,08,05,29,12.20
2020,05,08,05,30,12.30
2020,05,08,05,31,12.30
2020,05,08,05,32,12.40
2020,05,08,05,33,12.50
2020,05,08,05,34,12.60
2020,05,08,05,35,12.60
2020,05,08,05,36,12.70
2020,05,08,05,37,12.70
2020,05,08,05,38,12.80
2020,05,08,05,39,12.80
2020,05,08,05,40,12.80
2020,05,08,05,41,12.80
2020,05,08,05,42,12.80
2020,05,08,05,43,12.90
2020,05,08,05,44,12.90
2020,05,08,05,45,12.90
2020,05,08,05,46,12.90
2020,05,08,05,47,12.90
2020,05,08,05,48,12.90
2020,05,08,05,49,12.90
2020,05,08,05,50,12.90
2020,05,08,05,51,12.90
2020,05,08,05,52,13.00
2020,05,08,05,53,13.00
2020,05,08,05,54,13.00
2020,05,08,05,55,13.00
2020,05,08,05,56,13.10
2020,05,08,05,57,13.10
2020,05,08,05,58,13.10
2020,05,08,05,59,13.10
2020,05,08,06,00,13.10
2020,05,08,06,01,13.10
2020,05,08,06,02,13.20
2020,05,08,06,03,13.20
2020,05,08,06,04,13.20
2020,05,08,06,05,13.30
2020,05,08,06,06,13.30
2020,05,08,06,07,13.30
2020,05,08,06,08,13.30
2020,05,08,06,09,13.30
2020,05,08,06,10,13.30
2020,05,08,06,11,13.30
2020,05,08,06,12,13.30
2020,05,08,06,13,13.30
2020,05,08,06,14,13.30
2020,05,08,06,15,13.30
2020,05,08,06,16,13.30
2020,05,08,06,17,13.30
2020,05,08,06,18,13.30
2020,05,08,06,19,13.30
2020,05,08,06,20,13.30
2020,05,08,06,21,13.40
2020,05,08,06,22,13.40
2020,05,08,06,23,13.40
2020,05,08,06,24,13.40
2020,05,08,06,25,13.40
2020,05,08,06,26,13.40
2020,05,08,06,27,13.40
2020,05,08,06,28,13.40
2020,05,08,06,29,13.40
2020,05,08,06,30,13.40
2020,05,08,06,31,13.50
2020,05,08,06,32,13.50
2020,05,08,06,33,13.50
2020,05,08,06,34,13.50
2020,05,08,06,35,13.60
2020,05,08,06,36,13.60
2020,05,08,06,37,13.60
2020,05,08,06,38,13.60
2020,05,08,06,39,13.60
2020,05,08,06,40,13.60
2020,05,08,06,41,13.70
2020,05,08,06,42,13.70
2020,05,08,06,43,13.70
2020,05,08,06,44,13.80
2020,05,08,06,45,13.80
2020,05,08,06,46,13.80
2020,05,08,06,47,13.80
2020,05,08,06,48,13.80
2020,05,08,06,49,13.80
2020,05,08,06,50,13.90
2020,05,08,06,51,13.90
2020,05,08,06,52,13.90
2020,05,08,06,53,13.90
2020,05,08,06,54,13.90
2020,05,08,06,55,14.00
2020,05,08,06,56,14.00
2020,05,08,06,57,14.00
2020,05,08,06,58,14.00
2020,05,08,06,59,14.10
2020,05,08,07,00,14.10
2020,05,08,07,01,14.10
2020,05,08,07,02,14.20
2020,05,08,07,03,14.20
2020,05,08,07,04,14.20
2020,05,08,07,05,14.20
2020,05,08,07,06,14.20
2020,05,08,07,07,14.20
2020,05,08,07,08,14.30
2020,05,08,07,09,14.30
2020,05,08,07,10,14.30
2020,05,08,07,11,14.40
2020,05,08,07,12,14.40
2020,05,08,07,13,14.40
2020,05,08,07,14,14.40
2020,05,08,07,15,14.50
2020,05,08,07,16,14.50
2020,05,08,07,17,14.50
2020,05,08,07,18,14.60
2020,05,08,07,19,14.60
2020,05,08,07,20,14.60
2020,05,08,07,21,14.60
2020,05,08,07,22,14.60
2020,05,08,07,23,14.70
2020,05,08,07,24,14.70
2020,05,08,07,25,14.70
2020,05,08,07,26,14.70
2020,05,08,07,27,14.70
2020,05,08,07,28,14.70
2020,05,08,07,29,14.70
2020,05,08,07,30,14.70
2020,05,08,07,31,14.70
2020,05,08,07,32,14.80
2020,05,08,07,33,14.80
2020,05,08,07,34,14.80
2020,05,08,07,35,14.80
2020,05,08,07,36,14.80
2020,05,08,07,37,14.80
2020,05,08,07,38,14.80
2020,05,08,07,39,14.80
2020,05,08,07,40,14.90
2020,05,08,07,41,14.90
2020,05,08,07,42,14.90
2020,05,08,07,43,14.90
2020,05,08,07,44,14.90
2020,05,08,07,45,14.90
2020,05,08,07,46,14.90
2020,05,08,07,47,14.90
2020,05,08,07,48,14.90
2020,05,08,07,49,14.90
2020,05,08,07,50,15.00
2020,05,08,07,51,15.00
2020,05,08,07,52,15.00
2020,05,08,07,53,15.00
2020,05,08,07,54,15.00
2020,05,08,07,55,15.10
2020,05,08,07,56,15.10
2020,05,08,07,57,15.10
2020,05,08,07,58,15.10
2020,05,08,07,59,15.10
2020,05,08,08,00,15.10
2020,05,08,08,01,15.10
2020,05,08,08,02,15.10
2020,05,08,08,03,15.10
2020,05,08,08,04,15.10
2020,05,08,08,05,15.20
2020,05,08,08,06,15.20
2020,05,08,08,07,15.20
2020,05,08,08,08,15.20
2020,05,08,08,09,15.20
2020,05,08,08,10,15.20
2020,05,08,08,11,15.20
2020,05,08,08,12,15.20
2020,05,08,08,13,15.30
2020,05,08,08,14,15.30
2020,05,08,08,15,15.30
2020,05,08,08,16,15.30
2020,05,08,08,17,15.30
2020,05,08,08,18,15.30
2020,05,08,08,19,15.40
2020,05,08,08,20,15.40
2020,05,08,08,21,15.40
2020,05,08,08,22,15.40
2020,05,08,08,23,15.40
2020,05,08,08,24,15.40
2020,05,08,08,25,15.40
2020,05,08,08,26,15.50
2020,05,08,08,27,15.50
2020,05,08,08,28,15.50
2020,05,08,08,29,15.60
2020,05,08,08,30,15.60
2020,05,08,08,31,15.60
2020,05,08,08,32,15.60
2020,05,08,08,33,15.60
2020,05,08,08,34,15.70
2020,05,08,08,35,15.70
2020,05,08,08,36,15.70
2020,05,08,08,37,15.70
2020,05,08,08,38,15.70
2020,05,08,08,39,15.70
2020,05,08,08,40,15.70
2020,05,08,08,41,15.80
2020,05,08,08,42,15.80
2020,05,08,08,43,15.80
2020,05,08,08,44,15.80
2020,05,08,08,45,15.80
2020,05,08,08,46,15.80
2020,05,08,08,47,15.80
2020,05,08,08,48,15.90
2020,05,08,08,49,15.90
2020,05,08,08,50,15.90
2020,05,08,08,51,15.90
2020,05,08,08,52,15.90
2020,05,08,08,53,15.90
2020,05,08,08,54,15.90
2020,05,08,08,55,15.90
2020,05,08,08,56,15.90
2020,05,08,08,57,15.90
2020,05,08,08,58,15.90
2020,05,08,08,59,15.90
2020,05,08,09,00,15.90
2020,05,08,09,01,15.90
2020,05,08,09,02,15.90
2020,05,08,09,03,15.90
2020,05,08,09,04,15.90
2020,05,08,09,05,15.90
2020,05,08,09,06,15.90
2020,05,08,09,07,15.90
2020,05,08,09,08,15.90
2020,05,08,09,09,16.00
2020,05,08,09,10,16.00
2020,05,08,09,11,16.00
2020,05,08,09,12,16.00
2020,05,08,09,13,16.00
2020,05,08,09,14,16.10
2020,05,08,09,15,16.10
2020,05,08,09,16,16.10
2020,05,08,09,17,16.10
2020,05,08,09,18,16.10
2020,05,08,09,19,16.10
2020,05,08,09,20,16.10
2020,05,08,09,21,16.10
2020,05,08,09,22,16.10
2020,05,08,09,23,16.10
2020,05,08,09,24,16.10
2020,05,08,09,25,16.10
2020,05,08,09,26,16.20
2020,05,08,09,27,16.20
2020,05,08,09,28,16.20
2020,05,08,09,29,16.20
2020,05,08,09,30,16.20
2020,05,08,09,31,16.20
2020,05,08,09,32,16.20
2020,05,08,09,33,16.20
2020,05,08,09,34,16.20
2020,05,08,09,35,16.20
2020,05,08,09,36,16.20
2020,05,08,09,37,16.30
2020,05,08,09,38,16.30
2020,05,08,09,39,16.30
2020,05,08,09,40,16.30
2020,05,08,09,41,16.30
2020,05,08,09,42,16.30
2020,05,08,09,43,16.30
2020,05,08,09,44,16.30
2020,05,08,09,45,16.30
2020,05,08,09,46,16.30
2020,05,08,09,47,16.30
2020,05,08,09,48,16.40
2020,05,08,09,49,16.40
2020,05,08,09,50,16.40
2020,05,08,09,51,16.40
2020,05,08,09,52,16.50
2020,05,08,09,53,16.50
2020,05,08,09,54,16.50
2020,05,08,09,55,16.40
2020,05,08,09,56,16.50
2020,05,08,09,57,16.50
2020,05,08,09,58,16.50
2020,05,08,09,59,16.50
2020,05,08,10,00,16.50
2020,05,08,10,01,16.50
2020,05,08,10,02,16.50
2020,05,08,10,03,16.60
2020,05,08,10,04,16.60
2020,05,08,10,05,16.70
2020,05,08,10,06,16.70
2020,05,08,10,07,16.70
2020,05,08,10,08,16.70
2020,05,08,10,09,16.70
2020,05,08,10,10,16.70
2020,05,08,10,11,16.80
2020,05,08,10,12,16.80
2020,05,08,10,13,16.80
2020,05,08,10,14,16.80
2020,05,08,10,15,16.80
2020,05,08,10,16,16.80
2020,05,08,10,17,16.80
2020,05,08,10,18,16.80
2020,05,08,10,19,16.80
2020,05,08,10,20,16.80
2020,05,08,10,21,16.90
2020,05,08,10,22,16.90
2020,05,08,10,23,16.90
2020,05,08,10,24,17.00
2020,05,08,10,25,17.00
2020,05,08,10,26,17.00
2020,05,08,10,27,17.10
2020,05,08,10,28,17.10
2020,05,08,10,29,17.10
2020,05,08,10,30,17.10
2020,05,08,10,31,17.20
2020,05,08,10,32,17.20
2020,05,08,10,33,17.30
2020,05,08,10,34,17.30
2020,05,08,10,35,17.30
2020,05,08,10,36,17.30
2020,05,08,10,37,17.30
2020,05,08,10,38,17.30
2020,05,08,10,39,17.30
2020,05,08,10,40,17.30
2020,05,08,10,41,17.30
2020,05,08,10,42,17.30
2020,05,08,10,43,17.40
2020,05,08,10,44,17.40
2020,05,08,10,45,17.40
2020,05,08,10,46,17.40
2020,05,08,10,47,17.40
2020,05,08,10,48,17.50
2020,05,08,10,49,17.50
2020,05,08,10,50,17.60
2020,05,08,10,51,17.60
2020,05,08,10,52,17.70
2020,05,08,10,53,17.70
2020,05,08,10,54,17.70
2020,05,08,10,55,17.70
2020,05,08,10,56,17.70
2020,05,08,10,57,17.70
2020,05,08,10,58,17.70
2020,05,08,10,59,17.70
2020,05,08,11,00,17.70
2020,05,08,11,01,17.70
2020,05,08,11,02,17.70
2020,05,08,11,03,17.70
2020,05,08,11,04,17.80
2020,05,08,11,05,17.70
2020,05,08,11,06,17.70
2020,05,08,11,07,17.80
2020,05,08,11,08,17.80
2020,05,08,11,09,17.90
2020,05,08,11,10,17.90
2020,05,08,11,11,18.00
2020,05,08,11,12,18.00
2020,05,08,11,13,18.00
2020,05,08,11,14,18.00
2020,05,08,11,15,18.00
2020,05,08,11,16,18.00
2020,05,08,11,17,18.10
2020,05,08,11,18,18.10
2020,05,08,11,19,18.10
2020,05,08,11,20,18.10
2020,05,08,11,21,18.10
2020,05,08,11,22,18.20
2020,05,08,11,23,18.20
2020,05,08,11,24,18.20
2020,05,08,11,25,18.30
2020,05,08,11,26,18.30
2020,05,08,11,27,18.30
2020,05,08,11,28,18.30
2020,05,08,11,29,18.30
2020,05,08,11,30,18.30
2020,05,08,11,31,18.30
2020,05,08,11,32,18.30
2020,05,08,11,33,18.30
2020,05,08,11,34,18.30
2020,05,08,11,35,18.30
2020,05,08,11,36,18.30
2020,05,08,11,37,18.30
2020,05,08,11,38,18.30
2020,05,08,11,39,18.30
2020,05,08,11,40,18.30
2020,05,08,11,41,18.40
2020,05,08,11,42,18.40
2020,05,08,11,43,18.40
2020,05,08,11,44,18.40
2020,05,08,11,45,18.50
2020,05,08,11,46,18.50
2020,05,08,11,47,18.60
2020,05,08,11,48,18.60
2020,05,08,11,49,18.60
2020,05,08,11,50,18.60
2020,05,08,11,51,18.60
2020,05,08,11,52,18.70
2020,05,08,11,53,18.70
2020,05,08,11,54,18.70
2020,05,08,11,55,18.70
2020,05,08,11,56,18.80
2020,05,08,11,57,18.80
2020,05,08,11,58,18.80
2020,05,08,11,59,18.80
2020,05,08,12,00,18.80
2020,05,08,12,01,18.80
2020,05,08,12,02,18.80
2020,05,08,12,03,18.90
2020,05,08,12,04,18.90
2020,05,08,12,05,19.00
2020,05,08,12,06,19.00
2020,05,08,12,07,19.10
2020,05,08,12,08,19.20
2020,05,08,12,09,19.20
2020,05,08,12,10,19.30
2020,05,08,12,11,19.30
2020,05,08,12,12,19.30
2020,05,08,12,13,19.40
2020,05,08,12,14,19.50
2020,05,08,12,15,19.50
2020,05,08,12,16,19.60
2020,05,08,12,17,19.60
2020,05,08,12,18,19.50
2020,05,08,12,19,19.50
2020,05,08,12,20,19.50
2020,05,08,12,21,19.50
2020,05,08,12,22,19.50
2020,05,08,12,23,19.50
2020,05,08,12,24,19.50
2020,05,08,12,25,19.50
2020,05,08,12,26,19.50
2020,05,08,12,27,19.50
2020,05,08,12,28,19.60
2020,05,08,12,29,19.60
2020,05,08,12,30,19.60
2020,05,08,12,31,19.60
2020,05,08,12,32,19.70
2020,05,08,12,33,19.70
2020,05,08,12,34,19.70
2020,05,08,12,35,19.70
2020,05,08,12,36,19.80
2020,05,08,12,37,19.80
2020,05,08,12,38,19.80
2020,05,08,12,39,19.80
2020,05,08,12,40,19.90
2020,05,08,12,41,19.90
2020,05,08,12,42,20.00
2020,05,08,12,43,20.00
2020,05,08,12,44,20.10
2020,05,08,12,45,20.10
2020,05,08,12,46,20.10
2020,05,08,12,47,20.10
2020,05,08,12,48,20.20
2020,05,08,12,49,20.20
2020,05,08,12,50,20.20
2020,05,08,12,51,20.10
2020,05,08,12,52,20.10
2020,05,08,12,53,20.10
2020,05,08,12,54,20.20
2020,05,08,12,55,20.20
2020,05,08,12,56,20.30
2020,05,08,12,57,20.30
2020,05,08,12,58,20.40
2020,05,08,12,59,20.40
2020,05,08,13,00,20.50
2020,05,08,13,01,20.50
2020,05,08,13,02,20.60
2020,05,08,13,03,20.60
2020,05,08,13,04,20.60
2020,05,08,13,05,20.70
2020,05,08,13,06,20.70
2020,05,08,13,07,20.70
2020,05,08,13,08,20.80
2020,05,08,13,09,20.80
2020,05,08,13,10,20.90
2020,05,08,13,11,21.00
2020,05,08,13,12,21.00
2020,05,08,13,13,21.10
2020,05,08,13,14,21.10
2020,05,08,13,15,21.10
2020,05,08,13,16,21.20
2020,05,08,13,17,21.30
2020,05,08,13,18,21.30
2020,05,08,13,19,21.40
2020,05,08,13,20,21.40
2020,05,08,13,21,21.40
2020,05,08,13,22,21.50
2020,05,08,13,23,21.50
2020,05,08,13,24,21.60
2020,05,08,13,25,21.50
2020,05,08,13,26,21.50
2020,05,08,13,27,21.50
2020,05,08,13,28,21.50
2020,05,08,13,29,21.40
2020,05,08,13,30,21.40
2020,05,08,13,31,21.40
2020,05,08,13,32,21.40
2020,05,08,13,33,21.40
2020,05,08,13,34,21.50
2020,05,08,13,35,21.50
2020,05,08,13,36,21.60
2020,05,08,13,37,21.60
2020,05,08,13,38,21.60
2020,05,08,13,39,21.60
2020,05,08,13,40,21.70
2020,05,08,13,41,21.70
2020,05,08,13,42,21.70
2020,05,08,13,43,21.70
2020,05,08,13,44,21.70
2020,05,08,13,45,21.80
2020,05,08,13,46,21.80
2020,05,08,13,47,21.80
2020,05,08,13,48,21.80
2020,05,08,13,49,21.80
2020,05,08,13,50,21.80
2020,05,08,13,51,21.80
2020,05,08,13,52,21.90
2020,05,08,13,53,21.90
2020,05,08,13,54,22.00
2020,05,08,13,55,22.10
2020,05,08,13,56,22.10
2020,05,08,13,57,22.20
2020,05,08,13,58,22.20
2020,05,08,13,59,22.30
2020,05,08,14,00,22.40
2020,05,08,14,01,22.40
2020,05,08,14,02,22.40
2020,05,08,14,03,22.40
2020,05,08,14,04,22.40
2020,05,08,14,05,22.40
2020,05,08,14,06,22.40
2020,05,08,14,07,22.40
2020,05,08,14,08,22.50
2020,05,08,14,09,22.50
2020,05,08,14,10,22.50
2020,05,08,14,11,22.50
2020,05,08,14,12,22.50
2020,05,08,14,13,22.40
2020,05,08,14,14,22.40
2020,05,08,14,15,22.50
2020,05,08,14,16,22.50
2020,05,08,14,17,22.50
2020,05,08,14,18,22.50
2020,05,08,14,19,22.50
2020,05,08,14,20,22.60
2020,05,08,14,21,22.60
2020,05,08,14,22,22.70
2020,05,08,14,23,22.70
2020,05,08,14,24,22.70
2020,05,08,14,25,22.80
2020,05,08,14,26,22.80
2020,05,08,14,27,22.80
2020,05,08,14,28,22.80
2020,05,08,14,29,22.80
2020,05,08,14,30,22.80
2020,05,08,14,31,22.80
2020,05,08,14,32,22.80
2020,05,08,14,33,22.80
2020,05,08,14,34,22.70
2020,05,08,14,35,22.70
2020,05,08,14,36,22.70
2020,05,08,14,37,22.70
2020,05,08,14,38,22.70
2020,05,08,14,39,22.70
2020,05,08,14,40,22.70
2020,05,08,14,41,22.70
2020,05,08,14,42,22.70
2020,05,08,14,43,22.70
2020,05,08,14,44,22.70
2020,05,08,14,45,22.80
2020,05,08,14,46,22.80
2020,05,08,14,47,22.70
2020,05,08,14,48,22.70
2020,05,08,14,49,22.70
2020,05,08,14,50,22.70
2020,05,08,14,51,22.70
2020,05,08,14,52,22.70
2020,05,08,14,53,22.70
2020,05,08,14,54,22.80
2020,05,08,14,55,22.90
2020,05,08,14,56,22.90
2020,05,08,14,57,22.80
2020,05,08,14,58,22.90
2020,05,08,14,59,22.90
2020,05,08,15,00,22.90
2020,05,08,15,01,22.90
2020,05,08,15,02,23.00
2020,05,08,15,03,23.00
2020,05,08,15,04,23.00
2020,05,08,15,05,23.00
2020,05,08,15,06,23.00
2020,05,08,15,07,23.00
2020,05,08,15,08,23.00
2020,05,08,15,09,23.00
2020,05,08,15,10,23.10
2020,05,08,15,11,23.10
2020,05,08,15,12,23.10
2020,05,08,15,13,23.20
2020,05,08,15,14,23.20
2020,05,08,15,15,23.10
2020,05,08,15,16,23.10
2020,05,08,15,17,23.10
2020,05,08,15,18,23.20
2020,05,08,15,19,23.30
2020,05,08,15,20,23.30
2020,05,08,15,21,23.30
2020,05,08,15,22,23.40
2020,05,08,15,23,23.40
2020,05,08,15,24,23.40
2020,05,08,15,25,23.40
2020,05,08,15,26,23.40
2020,05,08,15,27,23.40
2020,05,08,15,28,23.40
2020,05,08,15,29,23.40
2020,05,08,15,30,23.40
2020,05,08,15,31,23.40
2020,05,08,15,32,23.40
2020,05,08,15,33,23.40
2020,05,08,15,34,23.40
2020,05,08,15,35,23.40
2020,05,08,15,36,23.40
2020,05,08,15,37,23.40
2020,05,08,15,38,23.40
2020,05,08,15,39,23.50
2020,05,08,15,40,23.60
2020,05,08,15,41,23.60
2020,05,08,15,42,23.60
2020,05,08,15,43,23.60
2020,05,08,15,44,23.60
2020,05,08,15,45,23.60
2020,05,08,15,46,23.60
2020,05,08,15,47,23.60
2020,05,08,15,48,23.60
2020,05,08,15,49,23.60
2020,05,08,15,50,23.60
2020,05,08,15,51,23.60
2020,05,08,15,52,23.60
2020,05,08,15,53,23.70
2020,05,08,15,54,23.70
2020,05,08,15,55,23.70
2020,05,08,15,56,23.70
2020,05,08,15,57,23.70
2020,05,08,15,58,23.80
2020,05,08,15,59,23.80
2020,05,08,16,00,23.80
2020,05,08,16,01,23.80
2020,05,08,16,02,23.80
2020,05,08,16,03,23.90
2020,05,08,16,04,23.90
2020,05,08,16,05,23.90
2020,05,08,16,06,23.90
2020,05,08,16,07,23.90
2020,05,08,16,08,23.90
2020,05,08,16,09,23.90
2020,05,08,16,10,23.90
2020,05,08,16,11,23.90
2020,05,08,16,12,23.90
2020,05,08,16,13,23.90
2020,05,08,16,14,23.90
2020,05,08,16,15,23.90
2020,05,08,16,16,23.90
2020,05,08,16,17,23.90
2020,05,08,16,18,23.90
2020,05,08,16,19,23.90
2020,05,08,16,20,23.90
2020,05,08,16,21,24.00
2020,05,08,16,22,24.00
2020,05,08,16,23,24.00
2020,05,08,16,24,24.00
2020,05,08,16,25,24.00
2020,05,08,16,26,24.10
2020,05,08,16,27,24.10
2020,05,08,16,28,24.10
2020,05,08,16,29,24.10
2020,05,08,16,30,24.10
2020,05,08,16,31,24.00
2020,05,08,16,32,24.00
2020,05,08,16,33,24.10
2020,05,08,16,34,24.10
2020,05,08,16,35,24.10
2020,05,08,16,36,24.10
2020,05,08,16,37,24.20
2020,05,08,16,38,24.20
2020,05,08,16,39,24.30
2020,05,08,16,40,24.30
2020,05,08,16,41,24.30
2020,05,08,16,42,24.40
2020,05,08,16,43,24.40
2020,05,08,16,44,24.40
2020,05,08,16,45,24.40
2020,05,08,16,46,24.30
2020,05,08,16,47,24.30
2020,05,08,16,48,24.30
2020,05,08,16,49,24.40
2020,05,08,16,50,24.40
2020,05,08,16,51,24.40
2020,05,08,16,52,24.40
2020,05,08,16,53,24.40
2020,05,08,16,54,24.40
2020,05,08,16,55,24.50
2020,05,08,16,56,24.50
2020,05,08,16,57,24.50
2020,05,08,16,58,24.50
2020,05,08,16,59,24.60
2020,05,08,17,00,24.60
2020,05,08,17,01,24.60
2020,05,08,17,02,24.60
2020,05,08,17,03,24.60
2020,05,08,17,04,24.60
2020,05,08,17,05,24.50
2020,05,08,17,06,24.50
2020,05,08,17,07,24.40
2020,05,08,17,08,24.40
2020,05,08,17,09,24.40
2020,05,08,17,10,24.40
2020,05,08,17,11,24.40
2020,05,08,17,12,24.40
2020,05,08,17,13,24.40
2020,05,08,17,14,24.40
2020,05,08,17,15,24.40
2020,05,08,17,16,24.40
2020,05,08,17,17,24.40
2020,05,08,17,18,24.40
2020,05,08,17,19,24.40
2020,05,08,17,20,24.40
2020,05,08,17,21,24.40
2020,05,08,17,22,24.40
2020,05,08,17,23,24.40
2020,05,08,17,24,24.40
2020,05,08,17,25,24.40